QPF
0.07 0.10 0.09 0.07 0.08 0.07 0.06 0.04 0.04 0.05 0.04 0.03 0.02 0.01 0.01 0.01 0.01 0.01 0.02 0.02 0.03 0.06 0.07 0.07 0.06 0.06 0.07 0.11 0.11 0.12 0.16 0.17 0.18 0.17 0.10 0.06 0.04 0.03 0.03 0.02 0.01 0.01 0.01 0.01
0.07 0.07 0.05 0.03 0.05 0.05 0.06 0.05 0.04 0.04 0.04 0.03 0.02 0.01 0.01 0.01 0.01 0.00 0.01 0.01 0.02 0.04 0.07 0.07 0.07 0.07 0.07 0.09 0.11 0.10 0.16 0.19 0.19 0.15 0.08 0.06 0.04 0.03 0.04 0.04 0.03 0.02 0.01 0.01
0.06 0.05 0.04 0.05 0.06 0.07 0.06 0.05 0.05 0.05 0.05 0.03 0.03 0.02 0.02 0.02 0.01 0.01 0.01 0.01 0.02 0.03 0.05 0.07 0.07 0.08 0.09 0.10 0.10 0.10 0.15 0.17 0.17 0.13 0.08 0.06 0.05 0.04 0.03 0.04 0.05 0.05 0.04 0.03
0.04 0.03 0.03 0.05 0.06 0.07 0.07 0.04 0.04 0.05 0.07 0.06 0.04 0.04 0.02 0.02 0.01 0.01 0.01 0.01 0.02 0.03 0.04 0.06 0.08 0.08 0.09 0.10 0.10 0.12 0.16 0.16 0.14 0.11 0.11 0.09 0.07 0.06 0.05 0.04 0.04 0.05 0.05 0.04
0.05 0.04 0.04 0.04 0.04 0.06 0.06 0.04 0.05 0.06 0.07 0.06 0.05 0.04 0.02 0.01 0.01 0.01 0.01 0.01 0.01 0.02 0.03 0.05 0.07 0.08 0.10 0.12 0.13 0.15 0.15 0.13 0.13 0.11 0.11 0.12 0.12 0.11 0.09 0.06 0.05 0.05 0.05 0.04
0.03 0.02 0.03 0.04 0.03 0.04 0.05 0.07 0.07 0.09 0.10 0.09 0.04 0.03 0.02 0.01 0.01 0.01 0.01 0.01 0.01 0.02 0.04 0.06 0.08 0.09 0.11 0.15 0.15 0.12 0.13 0.12 0.13 0.13 0.10 0.09 0.10 0.11 0.09 0.07 0.05 0.05 0.05 0.04
0.02 0.02 0.02 0.03 0.04 0.05 0.07 0.09 0.12 0.14 0.14 0.08 0.02 0.02 0.01 0.01 0.01 0.01 0.01 0.01 0.01 0.02 0.03 0.05 0.07 0.09 0.10 0.13 0.12 0.13 0.13 0.11 0.13 0.12 0.11 0.09 0.09 0.08 0.08 0.07 0.05 0.04 0.03 0.03
0.03 0.02 0.03 0.04 0.06 0.08 0.07 0.08 0.10 0.09 0.07 0.03 0.02 0.01 0.01 0.00 0.01 0.01 0.01 0.01 0.02 0.02 0.04 0.05 0.05 0.07 0.09 0.11 0.10 0.09 0.11 0.12 0.13 0.11 0.11 0.11 0.09 0.07 0.06 0.06 0.05 0.03 0.03 0.03
0.03 0.03 0.02 0.03 0.04 0.05 0.06 0.06 0.05 0.05 0.04 0.03 0.02 0.01 0.01 0.00 0.00 0.01 0.01 0.01 0.01 0.02 0.03 0.04 0.04 0.05 0.06 0.08 0.06 0.07 0.08 0.11 0.13 0.12 0.09 0.08 0.07 0.06 0.06 0.06 0.06 0.05 0.03 0.03
0.04 0.03 0.02 0.03 0.04 0.04 0.04 0.04 0.04 0.05 0.05 0.04 0.02 0.01 0.02 0.01 0.01 0.01 0.01 0.01 0.01 0.01 0.03 0.03 0.03 0.03 0.04 0.05 0.04 0.04 0.06 0.11 0.14 0.13 0.09 0.07 0.07 0.07 0.07 0.07 0.06 0.05 0.04 0.03
0.03 0.03 0.03 0.04 0.04 0.05 0.04 0.05 0.04 0.04 0.04 0.04 0.03 0.02 0.01 0.01 0.01 0.01 0.01 0.01 0.01 0.01 0.02 0.02 0.02 0.03 0.03 0.04 0.03 0.04 0.05 0.08 0.12 0.11 0.09 0.08 0.07 0.08 0.07 0.06 0.06 0.05 0.05 0.04
0.02 0.03 0.03 0.03 0.03 0.02 0.04 0.05 0.04 0.04 0.02 0.02 0.03 0.03 0.01 0.01 0.01 0.01 0.01 0.01 0.01 0.01 0.02 0.03 0.03 0.03 0.04 0.03 0.03 0.03 0.03 0.05 0.07 0.08 0.07 0.08 0.07 0.07 0.06 0.06 0.07 0.06 0.05 0.05
0.03 0.03 0.03 0.04 0.03 0.03 0.03 0.04 0.04 0.02 0.02 0.02 0.03 0.04 0.01 0.01 0.01 0.01 0.02 0.01 0.01 0.02 0.03 0.03 0.03 0.03 0.02 0.02 0.02 0.02 0.02 0.03 0.05 0.04 0.04 0.05 0.06 0.06 0.06 0.05 0.05 0.05 0.05 0.04
0.04 0.04 0.03 0.04 0.03 0.04 0.03 0.02 0.03 0.02 0.02 0.02 0.03 0.03 0.01 0.01 0.02 0.02 0.03 0.02 0.01 0.03 0.03 0.03 0.02 0.02 0.02 0.02 0.02 0.01 0.01 0.02 0.02 0.03 0.03 0.03 0.04 0.04 0.04 0.04 0.04 0.03 0.03 0.03
0.02 0.03 0.01 0.01 0.01 0.02 0.02 0.02 0.03 0.02 0.02 0.02 0.02 0.02 0.01 0.02 0.02 0.03 0.03 0.02 0.03 0.03 0.03 0.02 0.02 0.02 0.02 0.01 0.01 0.01 0.01 0.01 0.02 0.02 0.02 0.03 0.03 0.03 0.03 0.03 0.03 0.03 0.02 0.02
0.01 0.02 0.01 0.01 0.01 0.01 0.02 0.02 0.03 0.02 0.02 0.02 0.01 0.01 0.01 0.02 0.02 0.02 0.03 0.03 0.03 0.03 0.02 0.02 0.02 0.02 0.01 0.01 0.01 0.01 0.01 0.01 0.01 0.02 0.02 0.02 0.03 0.03 0.03 0.03 0.03 0.03 0.02 0.02
0.01 0.01 0.02 0.02 0.02 0.02 0.03 0.03 0.03 0.03 0.03 0.02 0.02 0.02 0.01 0.01 0.02 0.02 0.03 0.03 0.02 0.02 0.02 0.02 0.02 0.02 0.01 0.01 0.01 0.01 0.01 0.01 0.01 0.02 0.01 0.02 0.02 0.02 0.03 0.03 0.03 0.02 0.02 0.02
0.01 0.01 0.02 0.03 0.03 0.03 0.02 0.02 0.03 0.03 0.03 0.02 0.02 0.01 0.01 0.02 0.01 0.02 0.03 0.03 0.02 0.02 0.02 0.01 0.01 0.01 0.01 0.01 0.01 0.01 0.01 0.01 0.01 0.01 0.01 0.01 0.02 0.02 0.02 0.02 0.02 0.02 0.02 0.02
0.01 0.01 0.03 0.04 0.04 0.03 0.01 0.01 0.02 0.03 0.03 0.03 0.02 0.02 0.02 0.02 0.01 0.02 0.03 0.02 0.02 0.02 0.02 0.01 0.01 0.01 0.01 0.01 0.01 0.01 0.01 0.01 0.01 0.01 0.01 0.01 0.02 0.02 0.02 0.02 0.02 0.01 0.02 0.02
0.01 0.02 0.03 0.03 0.04 0.02 0.02 0.01 0.01 0.02 0.03 0.03 0.03 0.03 0.02 0.01 0.02 0.02 0.02 0.02 0.02 0.02 0.01 0.01 0.01 0.01 0.01 0.01 0.01 0.01 0.01 0.01 0.01 0.01 0.02 0.02 0.02 0.03 0.03 0.03 0.03 0.02 0.02 0.03
0.01 0.02 0.03 0.03 0.03 0.02 0.02 0.01 0.01 0.02 0.03 0.02 0.03 0.03 0.02 0.02 0.02 0.01 0.02 0.02 0.02 0.01 0.01 0.01 0.01 0.01 0.01 0.00 0.00 0.01 0.01 0.01 0.01 0.01 0.01 0.02 0.02 0.02 0.02 0.03 0.03 0.02 0.03 0.03
0.01 0.01 0.01 0.02 0.03 0.03 0.02 0.01 0.02 0.02 0.02 0.02 0.03 0.03 0.03 0.02 0.01 0.01 0.01 0.01 0.01 0.01 0.01 0.01 0.01 0.01 0.00 0.00 0.01 0.01 0.01 0.01 0.01 0.01 0.02 0.02 0.02 0.02 0.02 0.02 0.03 0.03 0.03 0.03
0.01 0.01 0.01 0.01 0.02 0.02 0.01 0.02 0.02 0.03 0.03 0.02 0.03 0.03 0.03 0.02 0.01 0.01 0.01 0.01 0.01 0.01 0.01 0.01 0.01 0.01 0.01 0.01 0.01 0.02 0.02 0.02 0.02 0.02 0.02 0.02 0.02 0.02 0.03 0.03 0.03 0.03 0.03 0.03
0.00 0.01 0.01 0.01 0.01 0.01 0.01 0.01 0.02 0.03 0.03 0.02 0.03 0.03 0.03 0.02 0.01 0.01 0.01 0.01 0.00 0.00 0.00 0.00 0.00 0.01 0.01 0.01 0.01 0.01 0.02 0.02 0.03 0.03 0.03 0.03 0.03 0.02 0.02 0.02 0.02 0.02 0.02 0.02
0.00 0.00 0.01 0.01 0.01 0.01 0.01 0.01 0.03 0.03 0.03 0.03 0.03 0.03 0.03 0.02 0.02 0.01 0.00 0.00 0.00 0.00 0.00 0.00 0.01 0.01 0.01 0.01 0.01 0.01 0.02 0.02 0.03 0.03 0.04 0.03 0.03 0.02 0.02 0.02 0.02 0.02 0.01 0.01
0.01 0.01 0.01 0.01 0.01 0.02 0.01 0.02 0.03 0.03 0.03 0.03 0.03 0.03 0.03 0.02 0.02 0.01 0.01 0.00 0.00 0.00 0.01 0.01 0.01 0.01 0.01 0.01 0.01 0.02 0.02 0.02 0.02 0.03 0.03 0.03 0.03 0.02 0.02 0.02 0.02 0.02 0.02 0.02
MSLP
1018.79 1019.14 1019.46 1019.68 1019.70 1019.46 1018.97 1018.25 1017.40 1016.54 1015.79 1015.27 1015.02 1015.09 1015.41 1015.91 1016.47 1016.96 1017.27 1017.34 1017.14 1016.69 1016.05 1015.29 1014.49 1013.71 1012.99 1012.32 1011.70 1011.09 1010.49 1009.88 1009.29 1008.73 1008.28 1007.97 1007.85 1007.96 1008.29 1008.82 1009.52 1010.32 1011.18 1012.05
1019.22 1019.54 1019.83 1020.03 1020.03 1019.82 1019.36 1018.70 1017.91 1017.12 1016.43 1015.95 1015.75 1015.85 1016.22 1016.78 1017.41 1017.98 1018.41 1018.59 1018.51 1018.15 1017.57 1016.82 1015.98 1015.13 1014.30 1013.52 1012.78 1012.08 1011.39 1010.72 1010.06 1009.45 1008.91 1008.49 1008.24 1008.18 1008.34 1008.70 1009.25 1009.94 1010.73 1011.57
1019.68 1019.93 1020.15 1020.29 1020.28 1020.08 1019.68 1019.10 1018.41 1017.71 1017.09 1016.65 1016.46 1016.53 1016.85 1017.37 1017.97 1018.56 1019.02 1019.28 1019.29 1019.04 1018.55 1017.88 1017.09 1016.24 1015.38 1014.55 1013.76 1013.00 1012.28 1011.57 1010.89 1010.24 1009.65 1009.14 1008.77 1008.56 1008.54 1008.72 1009.09 1009.63 1010.31 1011.09
1020.16 1020.32 1020.46 1020.54 1020.51 1020.34 1020.02 1019.55 1018.99 1018.40 1017.85 1017.43 1017.20 1017.17 1017.36 1017.73 1018.20 1018.69 1019.11 1019.39 1019.47 1019.33 1018.98 1018.43 1017.76 1016.99 1016.19 1015.39 1014.60 1013.84 1013.12 1012.41 1011.73 1011.06 1010.44 1009.88 1009.40 1009.05 1008.86 1008.84 1009.02 1009.38 1009.91 1010.59
1020.64 1020.71 1020.78 1020.82 1020.79 1020.69 1020.48 1020.16 1019.74 1019.27 1018.80 1018.38 1018.05 1017.87 1017.84 1017.97 1018.21 1018.51 1018.81 1019.05 1019.17 1019.14 1018.94 1018.57 1018.06 1017.45 1016.76 1016.04 1015.32 1014.60 1013.90 1013.22 1012.54 1011.89 1011.25 1010.65 1010.09 1009.62 1009.27 1009.07 1009.04 1009.20 1009.56 1010.10
1021.09 1021.11 1021.14 1021.16 1021.18 1021.17 1021.10 1020.95 1020.70 1020.37 1019.96 1019.52 1019.08 1018.69 1018.39 1018.21 1018.15 1018.20 1018.32 1018.46 1018.59 1018.65 1018.60 1018.42 1018.12 1017.70 1017.17 1016.57 1015.93 1015.28 1014.62 1013.97 1013.33 1012.68 1012.04 1011.41 1010.80 1010.23 1009.74 1009.37 1009.15 1009.11 1009.28 1009.65
1021.51 1021.51 1021.52 1021.58 1021.67 1021.78 1021.88 1021.91 1021.84 1021.63 1021.29 1020.82 1020.25 1019.65 1019.06 1018.54 1018.16 1017.91 1017.81 1017.84 1017.94 1018.07 1018.16 1018.18 1018.08 1017.85 1017.50 1017.03 1016.49 1015.91 1015.29 1014.67 1014.05 1013.43 1012.80 1012.16 1011.52 1010.88 1010.28 1009.76 1009.36 1009.13 1009.10 1009.29
1021.85 1021.86 1021.90 1022.01 1022.20 1022.45 1022.71 1022.92 1023.01 1022.93 1022.65 1022.16 1021.47 1020.66 1019.80 1018.98 1018.28 1017.75 1017.44 1017.33 1017.39 1017.57 1017.79 1017.97 1018.06 1018.01 1017.82 1017.48 1017.02 1016.49 1015.91 1015.31 1014.72 1014.12 1013.51 1012.88 1012.23 1011.56 1010.89 1010.25 1009.71 1009.30 1009.08 1009.08
1022.13 1022.16 1022.24 1022.41 1022.70 1023.06 1023.46 1023.82 1024.05 1024.07 1023.84 1023.33 1022.56 1021.59 1020.51 1019.44 1018.48 1017.73 1017.24 1017.02 1017.04 1017.26 1017.57 1017.89 1018.12 1018.22 1018.16 1017.91 1017.53 1017.03 1016.48 1015.90 1015.32 1014.74 1014.16 1013.57 1012.94 1012.27 1011.56 1010.85 1010.19 1009.63 1009.24 1009.05
1022.34 1022.39 1022.51 1022.74 1023.08 1023.52 1024.01 1024.45 1024.76 1024.84 1024.64 1024.12 1023.29 1022.23 1021.02 1019.79 1018.68 1017.78 1017.17 1016.89 1016.90 1017.14 1017.52 1017.94 1018.29 1018.49 1018.52 1018.34 1018.00 1017.53 1016.98 1016.41 1015.85 1015.31 1014.77 1014.22 1013.64 1013.00 1012.29 1011.55 1010.82 1010.14 1009.59 1009.23
1022.52 1022.59 1022.73 1022.96 1023.32 1023.76 1024.24 1024.69 1024.99 1025.08 1024.88 1024.34 1023.50 1022.41 1021.16 1019.89 1018.73 1017.79 1017.16 1016.86 1016.88 1017.16 1017.60 1018.08 1018.50 1018.78 1018.85 1018.72 1018.41 1017.95 1017.41 1016.86 1016.32 1015.81 1015.33 1014.84 1014.32 1013.73 1013.07 1012.33 1011.55 1010.79 1010.12 1009.60
1022.74 1022.81 1022.93 1023.13 1023.42 1023.78 1024.17 1024.52 1024.74 1024.76 1024.52 1023.97 1023.14 1022.08 1020.88 1019.66 1018.56 1017.67 1017.09 1016.84 1016.91 1017.23 1017.71 1018.24 1018.70 1019.01 1019.12 1019.02 1018.72 1018.28 1017.76 1017.23 1016.72 1016.25 1015.82 1015.41 1014.96 1014.45 1013.83 1013.12 1012.34 1011.53 1010.77 1010.11
1023.03 1023.09 1023.18 1023.29 1023.46 1023.67 1023.88 1024.04 1024.10 1023.98 1023.65 1023.08 1022.28 1021.29 1020.21 1019.13 1018.16 1017.41 1016.95 1016.79 1016.92 1017.29 1017.81 1018.36 1018.84 1019.17 1019.30 1019.21 1018.94 1018.52 1018.03 1017.52 1017.05 1016.63 1016.26 1015.91 1015.53 1015.09 1014.54 1013.88 1013.11 1012.28 1011.45 1010.69
1023.43 1023.49 1023.52 1023.53 1023.53 1023.52 1023.49 1023.41 1023.23 1022.94 1022.49 1021.88 1021.12 1020.24 1019.31 1018.41 1017.64 1017.07 1016.76 1016.71 1016.92 1017.34 1017.87 1018.42 1018.90 1019.23 1019.38 1019.31 1019.07 1018.68 1018.23 1017.77 1017.34 1016.96 1016.64 1016.34 1016.03 1015.64 1015.15 1014.54 1013.80 1012.98 1012.12 1011.28
1023.92 1023.99 1023.98 1023.88 1023.70 1023.45 1023.15 1022.79 1022.36 1021.87 1021.29 1020.64 1019.91 1019.15 1018.40 1017.71 1017.15 1016.77 1016.61 1016.68 1016.95 1017.39 1017.92 1018.46 1018.91 1019.24 1019.39 1019.34 1019.14 1018.80 1018.40 1017.98 1017.59 1017.25 1016.96 1016.69 1016.41 1016.07 1015.63 1015.06 1014.37 1013.57 1012.71 1011.84
1024.43 1024.55 1024.51 1024.31 1023.97 1023.50 1022.95 1022.32 1021.66 1020.98 1020.29 1019.60 1018.93 1018.28 1017.70 1017.21 1016.85 1016.65 1016.62 1016.77 1017.08 1017.52 1018.01 1018.50 1018.92 1019.23 1019.37 1019.35 1019.19 1018.91 1018.55 1018.18 1017.82 1017.51 1017.22 1016.97 1016.70 1016.38 1015.97 1015.44 1014.79 1014.03 1013.20 1012.33
1024.85 1025.03 1025.00 1024.74 1024.28 1023.64 1022.89 1022.06 1021.22 1020.39 1019.62 1018.93 1018.32 1017.79 1017.37 1017.06 1016.86 1016.80 1016.86 1017.06 1017.37 1017.76 1018.19 1018.61 1018.97 1019.24 1019.38 1019.38 1019.26 1019.02 1018.72 1018.39 1018.05 1017.74 1017.45 1017.18 1016.90 1016.58 1016.18 1015.69 1015.09 1014.38 1013.60 1012.77
1025.04 1025.30 1025.30 1025.02 1024.49 1023.77 1022.89 1021.94 1020.99 1020.11 1019.32 1018.66 1018.12 1017.72 1017.44 1017.27 1017.21 1017.23 1017.35 1017.54 1017.81 1018.12 1018.46 1018.79 1019.08 1019.29 1019.42 1019.43 1019.34 1019.16 1018.90 1018.60 1018.28 1017.96 1017.65 1017.35 1017.04 1016.70 1016.31 1015.85 1015.30 1014.66 1013.95 1013.18
1024.86 1025.19 1025.24 1024.99 1024.46 1023.70 1022.80 1021.83 1020.86 1019.99 1019.25 1018.66 1018.23 1017.96 1017.80 1017.75 1017.78 1017.85 1017.98 1018.14 1018.33 1018.54 1018.77 1019.00 1019.21 1019.37 1019.47 1019.49 1019.43 1019.29 1019.08 1018.80 1018.50 1018.17 1017.83 1017.49 1017.15 1016.79 1016.41 1015.97 1015.48 1014.92 1014.29 1013.61
1024.24 1024.63 1024.72 1024.51 1024.03 1023.31 1022.46 1021.54 1020.65 1019.86 1019.22 1018.75 1018.45 1018.29 1018.25 1018.29 1018.38 1018.48 1018.59 1018.69 1018.80 1018.91 1019.03 1019.17 1019.30 1019.41 1019.49 1019.53 1019.50 1019.39 1019.22 1018.97 1018.67 1018.34 1017.99 1017.62 1017.26 1016.88 1016.50 1016.10 1015.66 1015.18 1014.65 1014.07
1023.19 1023.59 1023.71 1023.55 1023.13 1022.51 1021.75 1020.95 1020.20 1019.54 1019.04 1018.71 1018.54 1018.51 1018.57 1018.68 1018.80 1018.91 1019.00 1019.05 1019.09 1019.12 1019.16 1019.21 1019.28 1019.37 1019.44 1019.48 1019.48 1019.42 1019.28 1019.07 1018.80 1018.47 1018.11 1017.73 1017.36 1016.98 1016.61 1016.25 1015.87 1015.47 1015.03 1014.55
1021.77 1022.14 1022.27 1022.15 1021.81 1021.30 1020.68 1020.04 1019.44 1018.95 1018.61 1018.42 1018.37 1018.44 1018.58 1018.75 1018.90 1019.02 1019.09 1019.10 1019.09 1019.07 1019.06 1019.08 1019.12 1019.19 1019.27 1019.34 1019.37 1019.35 1019.26 1019.09 1018.84 1018.54 1018.19 1017.83 1017.45 1017.09 1016.75 1016.42 1016.10 1015.77 1015.41 1015.01
1020.13 1020.44 1020.55 1020.47 1020.21 1019.81 1019.34 1018.86 1018.43 1018.10 1017.90 1017.83 1017.89 1018.04 1018.23 1018.44 1018.61 1018.74 1018.80 1018.82 1018.79 1018.76 1018.74 1018.74 1018.79 1018.88 1018.98 1019.08 1019.15 1019.18 1019.13 1019.01 1018.80 1018.53 1018.22 1017.88 1017.53 1017.19 1016.88 1016.58 1016.30 1016.03 1015.74 1015.41
1018.44 1018.67 1018.77 1018.71 1018.53 1018.25 1017.91 1017.59 1017.30 1017.11 1017.03 1017.05 1017.18 1017.37 1017.59 1017.81 1018.00 1018.13 1018.21 1018.24 1018.24 1018.23 1018.24 1018.28 1018.35 1018.47 1018.60 1018.74 1018.85 1018.92 1018.91 1018.84 1018.68 1018.46 1018.18 1017.88 1017.57 1017.26 1016.97 1016.71 1016.46 1016.22 1015.97 1015.69
1016.88 1017.05 1017.13 1017.11 1017.00 1016.83 1016.63 1016.43 1016.28 1016.19 1016.18 1016.26 1016.41 1016.60 1016.83 1017.04 1017.22 1017.37 1017.47 1017.53 1017.57 1017.61 1017.67 1017.76 1017.88 1018.03 1018.20 1018.36 1018.51 1018.60 1018.64 1018.60 1018.49 1018.31 1018.09 1017.83 1017.55 1017.27 1017.01 1016.76 1016.53 1016.31 1016.07 1015.81
1015.59 1015.72 1015.81 1015.84 1015.83 1015.77 1015.69 1015.61 1015.55 1015.53 1015.57 1015.65 1015.79 1015.96 1016.14 1016.33 1016.49 1016.64 1016.76 1016.86 1016.95 1017.05 1017.16 1017.29 1017.46 1017.64 1017.83 1018.01 1018.16 1018.27 1018.33 1018.32 1018.24 1018.10 1017.92 1017.70 1017.47 1017.22 1016.97 1016.74 1016.51 1016.28 1016.04 1015.79
Thickness
5508 5502 5501 5508 5516 5523 5527 5532 5538 5552 5565 5566 5571 5579 5589 5597 5600 5602 5605 5610 5614 5619 5625 5629 5632 5635 5636 5636 5637 5637 5638 5638 5639 5639 5638 5637 5637 5638 5638 5638 5638 5638 5637 5637
5499 5496 5505 5512 5516 5519 5520 5523 5532 5543 5556 5558 5561 5569 5580 5587 5591 5596 5598 5601 5605 5609 5614 5618 5622 5624 5625 5626 5629 5630 5630 5630 5630 5631 5630 5630 5629 5629 5629 5630 5629 5629 5630 5629
5495 5500 5508 5507 5508 5511 5516 5519 5527 5532 5543 5550 5552 5556 5566 5576 5584 5589 5592 5595 5598 5601 5604 5607 5611 5613 5615 5617 5620 5621 5621 5622 5623 5623 5622 5621 5620 5619 5619 5619 5620 5621 5622 5621
5498 5503 5507 5506 5504 5506 5509 5522 5527 5530 5526 5529 5542 5534 5555 5565 5570 5577 5582 5585 5588 5592 5595 5598 5601 5603 5606 5608 5610 5612 5613 5614 5615 5615 5615 5615 5614 5612 5613 5613 5613 5613 5613 5613
5495 5499 5500 5501 5504 5506 5510 5520 5523 5525 5521 5519 5531 5528 5544 5559 5560 5568 5572 5575 5579 5583 5586 5589 5592 5594 5597 5599 5601 5602 5603 5604 5606 5607 5608 5608 5607 5606 5605 5605 5604 5604 5605 5605
5496 5499 5498 5499 5504 5508 5510 5513 5517 5518 5514 5507 5526 5527 5533 5547 5554 5560 5565 5568 5571 5574 5577 5580 5582 5584 5586 5589 5590 5591 5593 5594 5596 5598 5599 5600 5600 5599 5598 5596 5596 5596 5596 5596
5490 5495 5497 5498 5497 5501 5503 5499 5497 5499 5499 5508 5531 5529 5529 5547 5554 5556 5557 5558 5560 5563 5565 5568 5570 5572 5574 5577 5579 5581 5582 5584 5586 5588 5589 5590 5591 5591 5591 5589 5589 5588 5588 5588
5476 5480 5490 5492 5491 5489 5494 5494 5488 5490 5498 5511 5525 5520 5528 5544 5548 5550 5550 5551 5551 5552 5554 5557 5559 5561 5562 5565 5568 5570 5572 5574 5575 5577 5579 5581 5582 5582 5582 5582 5582 5582 5582 5582
5465 5474 5488 5489 5491 5489 5489 5488 5493 5489 5497 5498 5510 5522 5527 5537 5537 5538 5538 5538 5539 5541 5543 5546 5549 5551 5553 5555 5558 5560 5562 5563 5565 5566 5569 5571 5572 5573 5573 5574 5574 5575 5575 5574
5460 5462 5478 5485 5487 5486 5487 5487 5482 5482 5486 5491 5508 5515 5513 5517 5521 5526 5526 5527 5529 5532 5534 5535 5537 5540 5543 5545 5547 5549 5551 5553 5554 5556 5558 5560 5561 5562 5563 5565 5565 5565 5566 5566
5456 5453 5467 5473 5469 5471 5476 5477 5476 5478 5484 5485 5488 5496 5510 5509 5511 5513 5515 5517 5518 5521 5523 5524 5526 5529 5532 5534 5536 5538 5540 5542 5543 5545 5547 5549 5550 5551 5552 5554 5555 5556 5556 5556
5452 5450 5452 5464 5474 5475 5474 5473 5468 5463 5470 5482 5480 5481 5499 5501 5503 5503 5504 5507 5510 5511 5512 5514 5516 5518 5520 5523 5525 5527 5530 5532 5533 5534 5536 5538 5540 5541 5542 5543 5545 5545 5546 5546
5445 5438 5443 5456 5460 5462 5462 5465 5463 5461 5463 5467 5468 5474 5490 5490 5489 5490 5492 5495 5497 5499 5501 5503 5504 5505 5507 5510 5513 5515 5518 5520 5521 5523 5525 5526 5527 5529 5531 5532 5534 5535 5535 5536
5442 5431 5433 5443 5450 5450 5449 5453 5455 5452 5452 5460 5468 5470 5475 5475 5475 5477 5480 5483 5485 5487 5488 5490 5491 5493 5495 5497 5500 5503 5505 5507 5509 5511 5513 5514 5515 5517 5519 5521 5523 5524 5525 5525
5430 5427 5429 5438 5447 5449 5447 5448 5448 5445 5449 5450 5459 5461 5461 5461 5461 5464 5467 5471 5474 5475 5476 5477 5478 5479 5482 5485 5487 5490 5492 5495 5497 5499 5501 5502 5504 5505 5507 5510 5511 5513 5513 5514
5420 5420 5423 5429 5446 5447 5442 5442 5443 5444 5446 5447 5449 5447 5450 5453 5453 5451 5453 5457 5460 5461 5463 5463 5465 5466 5469 5471 5474 5477 5480 5482 5485 5487 5488 5490 5492 5494 5496 5498 5499 5501 5501 5502
5414 5410 5416 5427 5437 5435 5430 5431 5433 5435 5436 5438 5437 5436 5440 5440 5440 5437 5439 5442 5445 5447 5448 5449 5450 5452 5454 5457 5461 5464 5467 5470 5473 5475 5477 5478 5480 5481 5484 5486 5488 5489 5490 5491
5406 5405 5409 5416 5418 5416 5430 5430 5430 5426 5425 5425 5426 5427 5427 5427 5427 5427 5427 5428 5430 5432 5434 5436 5437 5439 5442 5445 5448 5451 5454 5457 5460 5463 5465 5466 5467 5469 5472 5474 5475 5477 5478 5478
5410 5402 5405 5407 5411 5417 5424 5419 5415 5415 5412 5413 5414 5416 5416 5417 5418 5416 5417 5417 5418 5419 5421 5423 5425 5427 5429 5432 5435 5438 5441 5444 5447 5450 5452 5454 5456 5458 5460 5461 5463 5464 5465 5466
5405 5398 5396 5402 5404 5407 5415 5408 5405 5404 5400 5403 5405 5404 5404 5406 5404 5403 5405 5406 5407 5408 5409 5411 5413 5415 5417 5420 5423 5426 5428 5431 5435 5437 5440 5442 5444 5446 5447 5449 5450 5452 5453 5454
5394 5393 5392 5395 5397 5400 5402 5399 5400 5395 5395 5395 5395 5392 5392 5390 5389 5390 5393 5394 5394 5395 5397 5400 5402 5403 5405 5408 5411 5413 5416 5419 5422 5425 5427 5429 5431 5433 5435 5437 5438 5440 5441 5442
5390 5389 5387 5389 5389 5394 5393 5391 5388 5387 5389 5388 5386 5384 5381 5380 5380 5381 5381 5381 5382 5383 5385 5388 5390 5391 5394 5396 5399 5401 5403 5406 5409 5412 5414 5417 5419 5421 5423 5425 5426 5428 5430 5431
5392 5390 5388 5386 5391 5392 5386 5384 5383 5382 5380 5379 5377 5376 5374 5371 5370 5370 5371 5372 5373 5373 5374 5376 5378 5380 5382 5384 5387 5389 5391 5394 5397 5399 5401 5404 5406 5409 5411 5413 5414 5416 5418 5419
5394 5390 5384 5380 5386 5386 5383 5381 5379 5376 5372 5372 5370 5368 5366 5363 5361 5359 5360 5361 5363 5364 5364 5366 5367 5369 5371 5374 5376 5378 5380 5383 5385 5387 5389 5391 5394 5396 5399 5401 5403 5404 5406 5408
5392 5382 5377 5373 5378 5379 5380 5376 5373 5369 5367 5365 5362 5359 5357 5354 5352 5351 5350 5352 5353 5353 5354 5355 5357 5359 5361 5364 5366 5369 5371 5373 5374 5376 5378 5380 5383 5385 5387 5389 5391 5392 5395 5398
5386 5379 5374 5376 5377 5371 5370 5370 5367 5362 5359 5357 5354 5350 5348 5345 5344 5343 5342 5343 5343 5344 5344 5345 5347 5349 5352 5355 5357 5359 5362 5363 5365 5366 5367 5369 5371 5373 5375 5377 5379 5382 5384 5387